Regional Weather Roundup
Issued by NWS

Home | Current Version | Previous Version | Text Only | Print | Product List | Glossary Off
Versions: 1 2 3 4 5 6 7 8 9 10 11 12 13 14 15 16 17 18 19 20 21 22 23 24 25 26 27 28 29 30 31 32 33 34 35 36 37 38 39 40 41 42 43 44 45 46 47 48 49 50

000
ASUS43 KMPX 201401
RWRMN
WEATHER ROUNDUP FOR MINNESOTA
NATIONAL WEATHER SERVICE TWIN CITIES/CHANHASSEN MN
900 AM CDT SUN APR 20 2014


NOTE: "FAIR" INDICATES FEW OR NO CLOUDS BELOW 12,000 FEET WITH NO
SIGNIFICANT WEATHER AND/OR OBSTRUCTIONS TO VISIBILITY. N/A MEANS
CURRENT SKY AND/OR WEATHER CONDITIONS ARE NOT AVAILABLE.

MNZ060>063-068>070-201500-
   Twin Cities Metro

CITY           SKY/WX    TMP DP  RH WIND       PRES   REMARKS
TWIN CITIES    MOSUNNY   53  47  79 VRB3      30.05S
ST PAUL        SUNNY     56  49  77 CALM      30.05F
CRYSTAL        SUNNY     54  44  69 NE5       30.04S
BLAINE         SUNNY     54  50  87 NE6       30.04F
EDEN PRAIRIE   SUNNY     57  47  69 NE3       30.04R
LAKEVILLE      SUNNY     55  52  88 N6        30.04S FOG
SOUTH ST PAUL  SUNNY     58  49  72 CALM      30.05S
LAKE ELMO      FAIR      55  50  82 E3        30.06R
$$
MNZ001>005-007-008-013>017-022>024-027-028-201500-
   Northwest Minnesota

CITY           SKY/WX    TMP DP  RH WIND       PRES   REMARKS
BEMIDJI        SUNNY     44  35  71 CALM      30.04S
HALLOCK        CLOUDY    37  34  87 SE3       30.04S
ROSEAU         SUNNY     41  34  75 CALM      30.05S
WARROAD        SUNNY     39  34  81 CALM      30.05S
THIEF RVR FALL SUNNY     41  34  75 CALM      30.05S
CROOKSTON      SUNNY     43  37  81 CALM      30.04F
FOSSTON        SUNNY     45  37  76 CALM      30.03F
DETROIT LAKES  SUNNY     46  36  66 SE7       30.04S
MOORHEAD       SUNNY     43  39  87 S7        30.03F
PARK RAPIDS    SUNNY     45  37  73 SE3       30.03F
$$
MNZ006-009>011-018-025>026-201500-
   North Central Minnesota

CITY           SKY/WX    TMP DP  RH WIND       PRES   REMARKS
BAUDETTE       SUNNY     40  32  73 W5        30.05S
FLAG ISLAND    SUNNY     36  28  75 CALM      30.03S
INTL FALLS     SUNNY     41  31  67 W7        30.05R
WASKISH        SUNNY     39  37  93 CALM      30.06S
LONGVILLE      SUNNY     46  37  71 CALM      30.04F
GRAND RAPIDS   SUNNY     43  36  75 CALM      30.05S
CRANE LAKE     SUNNY     43  41  93 CALM      30.06S
ORR            SUNNY     43  36  75 CALM      30.02S
COOK           SUNNY     43  36  75 CALM      30.04S
$$
MNZ012-019>021-037-201500-
   Northeast Minnesota

CITY           SKY/WX    TMP DP  RH WIND       PRES   REMARKS
DULUTH         SUNNY     46  36  68 N7        30.03F
ELY            SUNNY     43  36  75 CALM      30.04S
HIBBING        SUNNY     44  37  76 CALM      30.04F
EVELETH        SUNNY     43  36  75 CALM      30.05S
DULUTH HARBOR  SUNNY     37  34  87 CALM      30.06F
TWO HARBORS    SUNNY     45  36  70 CALM      30.02S
SILVER BAY     SUNNY     43  39  87 CALM      30.01S
GRAND MARAIS     N/A     39  34  82 SW7       30.02S
G MARAIS ARPRT SUNNY     45  34  65 NW3       30.01S
$$
MNZ029>031-032-039>041-046>048-054>057-064-201500-
   West Central Minnesota

CITY           SKY/WX    TMP DP  RH WIND       PRES   REMARKS
FERGUS FALLS   SUNNY     52  32  46 CALM      30.00F
WHEATON        SUNNY     52  39  62 SE9       30.04F
MORRIS         SUNNY     52  37  58 E13       30.02F
ALEXANDRIA     SUNNY     50  34  54 E12       30.04F
ELBOW LAKE     FAIR      49  35  59 E12       30.02F
WADENA         SUNNY     45  37  76 SE6       30.04S
GLENWOOD       SUNNY     50  37  62 E9        30.04F
APPLETON       SUNNY     50  36  57 E8        30.02F
BENSON         SUNNY     52  37  58 E8        30.03S
ORTONVILLE     SUNNY     48  36  61 E8        30.03S
MADISON        SUNNY     48  39  71 NE6       30.03S
WILLMAR        FAIR      52  37  58 E10       30.05R
$$
MNZ033>034-036-042>043-049>051-058-059-201500-
   Central Minnesota

CITY           SKY/WX    TMP DP  RH WIND       PRES   REMARKS
ST CLOUD       SUNNY     51  40  65 N3        30.05R
SAUK CENTRE    FAIR      49  35  58 E8        30.05S
PAYNESVILLE    SUNNY     48  38  68 CALM      30.05S
AITKIN         SUNNY     50  39  66 CALM      30.03F
PINE RIVER     SUNNY     45  37  76 CALM      30.07F
BRAINERD       SUNNY     53  37  54 NE3       30.05F
STAPLES        SUNNY     46  36  66 E3        30.04F
LONG PRAIRIE   FAIR      48  37  66 NE5       30.05S
LITTLE FALLS   SUNNY     46  36  66 CALM      30.04F
LITCHFIELD     SUNNY     50  43  76 NE3       30.04S
BUFFALO        SUNNY     49  41  72 NE5       30.06R
MAPLE LAKE     SUNNY     51  44  75 NE7       30.05S
$$
MNZ037-044-045-052-053-201500-
   East Central Minnesota

CITY           SKY/WX    TMP DP  RH WIND       PRES   REMARKS
PRINCETON      SUNNY     46  46 100 NE6       30.05S
MORA           SUNNY     45  43  93 CALM      30.06S
CAMBRIDGE      SUNNY     48  37  66 NE3       30.03F
RUSH CITY      SUNNY     41  40  97 CALM      30.06S
MOOSE LAKE     SUNNY     43  36  75 CALM      30.04S
HINCKLEY       FAIR      45  37  76 NE5       30.05S
CLOQUET        SUNNY     46  37  71 NW7       30.04S
MCGREGOR       SUNNY     46  39  76 CALM      30.06S
$$
MNZ071>073-080-081-089-090-097-098-201500-
   Southwest Minnesota

CITY           SKY/WX    TMP DP  RH WIND       PRES   REMARKS
MONTEVIDEO     SUNNY     48  39  71 SE8       30.04S
GRANITE FALLS  SUNNY     44  37  76 CALM      30.05S
CANBY          SUNNY     46  39  76 NW6       30.05S
MARSHALL       SUNNY     48  37  66 NW7       30.03S
REDWOOD FALLS  SUNNY     52  42  69 N5        30.02F
OLIVIA         SUNNY     50  45  81 NE5       30.03R
PIPESTONE      SUNNY     59  34  38 E8        30.01S
WINDOM         PTSUNNY   55  43  62 N6        30.03S
WORTHINGTON    SUNNY     54  36  50 N10       30.05R
JACKSON        CLOUDY    59  46  63 E7        30.03R
TRACY          SUNNY     51  39  63 CALM      30.04R
SLAYTON        SUNNY     56  36  46 NE3       30.04R
$$
MNZ065>067-074>077-082>085-091>093-201500-
   South Central Minnesota

CITY           SKY/WX    TMP DP  RH WIND       PRES   REMARKS
MANKATO        CLOUDY    55  48  76 N10       30.04R
NEW ULM          N/A     54  48  82 NE5       30.04R
ST JAMES       PTSUNNY   54  46  76 N5        30.04R
FAIRMONT       CLOUDY    52  46  82 CALM      30.04S
GLENCOE        SUNNY     54  44  67 NE3       30.03F
FARIBAULT      SUNNY     59  52  77 CALM      30.04S
OWATONNA       MOSUNNY   57  50  77 S6        30.04R
WASECA         PTSUNNY   59  54  82 E3        30.05S
ALBERT LEA     PTSUNNY   55  52  88 S7        30.04R
$$
MNZ078>079-086>088-094>096-201500-
   Southeast Minnesota

CITY           SKY/WX    TMP DP  RH WIND       PRES   REMARKS
ROCHESTER      CLOUDY    52  47  83 S12       30.05S
RED WING       PTSUNNY   57  52  82 SE5       30.03F
STANTON        FOG       54  52  94 N6        30.03S VSB 3/4
DODGE CENTER   MOSUNNY   57  50  77 S14       30.04S
WINONA           N/A    N/A N/A N/A MISG        N/A
AUSTIN         CLOUDY    54  48  82 S9        30.05S
PRESTON        CLOUDY    52  47  82 S6        30.08S
$$
ABBREVIATIONS USED IN REMARKS
   TC - TEMPERATURES IN CELSIUS
  WCI - WIND CHILL INDEX
   HX - HEAT INDEX
  VSB - VISIBILITY
$$



USA.gov is the U.S. government's official web portal to all federal, state and local government web resources and services.